Rogers, AR

3:42 PM CST on February 12, 2016 (GMT -0600)
Rogers Municipal-Carter

Weather History for KROG - September, 2012

Change the Weather History Date:

Wednesday, September 19, 2012

  Actual Average Record
Temperature  
Mean Temperature 64 °F -  
Max Temperature 77 °F 75 °F 91 °F (2005)
Min Temperature 51 °F 56 °F 46 °F (2006)
Degree Days  
Heating Degree Days 1    
Growing Degree Days 14 (Base 50)    
Moisture  
Dew Point 48 °F    
Average Humidity 59    
Maximum Humidity 89    
Minimum Humidity 34    
Precipitation  
Precipitation 0.00 in - - ()
Sea Level Pressure  
Sea Level Pressure 30.07 in    
Wind  
Wind Speed 9 mph (SSE)    
Max Wind Speed 15 mph    
Max Gust Speed 21 mph    
Visibility 10 miles    
Events      
Averages and records for this station are not official NWS values.
T = Trace of Precipitation, MM = Missing Value Source: NWS Daily Summary

Daily Weather History Graph

Daily Weather History Graph

Search for Another Location

Airport or City:

Trip Planner

Search our weather history database for the weather conditions in past years. The results will help you decide how hot, cold, wet, or windy it might be!

Date:

Astronomy

Sep. 19, 2012 Rise Set
Actual Time 7:02 AM CDT 7:17 PM CDT
Civil Twilight 6:36 AM CDT 7:42 PM CDT
Nautical Twilight 6:06 AM CDT 8:12 PM CDT
Astronomical Twilight 5:35 AM CDT 8:43 PM CDT
Moon 11:04 AM CDT (9/19) 9:36 PM CDT (9/19)
Length of Visible Light 13h 06m
Length of Day
12h 14m
Waxing Crescent, 17% of the Moon is Illuminated
Sep 19
Waxing Crescent
Sep 22
First Quarter
Sep 29
Full
Oct 8
Last Quarter
Oct 15
New

Hourly Weather History & Observations

Time (CDT) Temp. Dew Point Humidity Pressure Visibility Wind Dir Wind Speed Gust Speed Precip Events Conditions
12:57 AM 55.0 °F 50.0 °F 83% 30.10 in 10.0 mi SE 9.2 mph - N/A   Clear
1:57 AM 54.0 °F 48.9 °F 83% 30.09 in 10.0 mi SSE 5.8 mph - N/A   Clear
2:57 AM 53.1 °F 48.9 °F 86% 30.09 in 10.0 mi SE 5.8 mph - N/A   Clear
3:57 AM 53.1 °F 48.9 °F 86% 30.08 in 10.0 mi ESE 5.8 mph - N/A   Clear
4:57 AM 53.1 °F 48.0 °F 83% 30.09 in 10.0 mi ESE 5.8 mph - N/A   Clear
5:57 AM 52.0 °F 48.0 °F 86% 30.11 in 10.0 mi SE 4.6 mph - N/A   Clear
6:57 AM 51.1 °F 48.0 °F 89% 30.13 in 10.0 mi ESE 4.6 mph - N/A   Clear
8:57 AM 57.9 °F 46.9 °F 67% 30.14 in 10.0 mi SSE 10.4 mph - N/A   Clear
9:57 AM 63.0 °F 46.0 °F 54% 30.14 in 10.0 mi SSE 8.1 mph - N/A   Clear
10:57 AM 68.0 °F 46.0 °F 45% 30.14 in 10.0 mi South 13.8 mph - N/A   Clear
11:57 AM 72.0 °F 45.0 °F 38% 30.13 in 10.0 mi South 15.0 mph - N/A   Clear
12:57 PM 73.9 °F 44.1 °F 34% 30.11 in 10.0 mi SSW 15.0 mph 20.7 mph N/A   Clear
1:57 PM 75.0 °F 46.0 °F 36% 30.08 in 10.0 mi SSW 13.8 mph - N/A   Clear
3:57 PM 75.9 °F 46.9 °F 36% 30.04 in 10.0 mi South 15.0 mph - N/A   Clear
4:57 PM 77.0 °F 48.0 °F 36% 30.02 in 10.0 mi SSW 15.0 mph - N/A   Clear
5:57 PM 75.0 °F 46.9 °F 37% 30.02 in 10.0 mi SSW 11.5 mph 20.7 mph N/A   Clear
6:57 PM 73.0 °F 48.0 °F 41% 30.01 in 10.0 mi South 11.5 mph - N/A   Clear
7:57 PM 68.0 °F 50.0 °F 52% 30.02 in 10.0 mi SSE 9.2 mph - N/A   Clear
8:57 PM 66.9 °F 48.9 °F 52% 30.02 in 10.0 mi SSE 8.1 mph - N/A   Clear
9:57 PM 64.9 °F 48.9 °F 56% 30.03 in 10.0 mi SSE 9.2 mph - N/A   Clear
10:57 PM 63.0 °F 50.0 °F 63% 30.02 in 10.0 mi SSE 8.1 mph - N/A   Clear
11:57 PM 63.0 °F 50.0 °F 63% 30.01 in 10.0 mi SSE 9.2 mph - N/A   Clear